Coleville, CA

4:43 PM PST on December 04, 2016 (GMT -0800)
MCMWTC BRIDGEPORT, CA

Weather History for KBAN - December, 2013

Change the Weather History Date:

Sunday, December 8, 2013

  Actual Average (KTVL) Record (KTVL)
Temperature  
Mean Temperature 2 °F 30 °F  
Max Temperature 19 °F 44 °F 61 °F (2015)
Min Temperature -14 °F 17 °F -17 °F (2013)
Degree Days  
Heating Degree Days 62 35  
Month to date heating degree days 271  
Since 1 July heating degree days 2364  
Cooling Degree Days 0 0  
Month to date cooling degree days 0  
Year to date cooling degree days 31  
Moisture  
Dew Point -10 °F    
Average Humidity 69    
Maximum Humidity 87    
Minimum Humidity 44    
Precipitation  
Precipitation 0.00 in - 1.33 in (1950)
Month to date precipitation  
Year to date precipitation  
Sea Level Pressure  
Sea Level Pressure 30.34 in    
Wind  
Wind Speed 0 mph (West)    
Max Wind Speed 8 mph    
Max Gust Speed -    
Visibility 10 miles    
Events      
T = Trace of Precipitation, MM = Missing Value Source: NWS Daily Summary

Daily Weather History Graph

Daily Weather History Graph

Search for Another Location

Airport or City:

Trip Planner

Search our weather history database for the weather conditions in past years. The results will help you decide how hot, cold, wet, or windy it might be!

Date:

Astronomy

Dec. 08, 2013 Rise Set
Actual Time 7:02 AM PST 4:37 PM PST
Civil Twilight 6:33 AM PST 5:06 PM PST
Nautical Twilight 6:00 AM PST 5:39 PM PST
Astronomical Twilight 5:28 AM PST 6:12 PM PST
Moon 11:29 AM PST (12/8) 11:28 PM PST (12/8)
Length of Visible Light 10h 33m
Length of Day
9h 34m
Waxing Crescent, 41% of the Moon is Illuminated
Dec 8
Waxing Crescent
Dec 9
First Quarter
Dec 17
Full
Dec 25
Last Quarter
Jan 1
New

Hourly Weather History & Observations

Time (PST) Temp. Windchill Dew Point Humidity Pressure Visibility Wind Dir Wind Speed Gust Speed Precip Events Conditions
12:52 AM -9.0 °F - -15.0 °F 75% 30.20 in 10.0 mi Calm Calm - N/A   Clear
1:52 AM -11.0 °F - -17.0 °F 75% 30.22 in 10.0 mi Calm Calm - N/A   Clear
2:52 AM -14.1 °F - -18.9 °F 79% 30.23 in 10.0 mi Calm Calm - N/A   Clear
3:52 AM -13.0 °F - -20.0 °F 71% 30.26 in 10.0 mi Calm Calm - N/A   Clear
4:52 AM -13.0 °F - -20.9 °F 68% 30.27 in 10.0 mi Calm Calm - N/A   Clear
5:52 AM -11.9 °F - -18.0 °F 74% 30.27 in 10.0 mi Calm Calm - N/A   Clear
6:52 AM -11.9 °F - -18.0 °F 74% 30.30 in 10.0 mi Calm Calm - N/A   Clear
7:52 AM -11.9 °F - -18.9 °F 71% 30.32 in 10.0 mi Calm Calm - N/A   Clear
8:52 AM -9.0 °F - -11.9 °F 87% 30.35 in 10.0 mi Calm Calm - N/A   Clear
9:52 AM -0.9 °F - -6.0 °F 79% 30.35 in 10.0 mi Calm Calm - N/A   Clear
10:52 AM 6.1 °F - -4.0 °F 63% 30.34 in 10.0 mi Calm Calm - N/A   Clear
11:52 AM 14.0 °F - -0.9 °F 52% 30.30 in 10.0 mi Calm Calm - N/A   Clear
12:52 PM 17.1 °F - 1.0 °F 50% 30.25 in 10.0 mi Calm Calm - N/A   Clear
1:52 PM 19.9 °F - 1.0 °F 44% 30.23 in 10.0 mi Calm Calm - N/A   Clear
2:52 PM 19.9 °F 10.1 °F 3.0 °F 48% 30.27 in 10.0 mi SE 8.1 mph - N/A   Clear
3:52 PM 16.0 °F - 3.0 °F 57% 30.30 in 10.0 mi Calm Calm - N/A   Clear
4:52 PM 6.1 °F -2.8 °F -0.9 °F 73% 30.35 in 10.0 mi West 4.6 mph - N/A   Clear
5:52 PM 5.0 °F -2.1 °F -2.0 °F 73% 30.38 in 10.0 mi NNW 3.5 mph - N/A   Clear
6:52 PM 1.0 °F - -5.1 °F 75% 30.45 in 10.0 mi Calm Calm - N/A   Clear
7:52 PM -2.9 °F - -9.0 °F 75% 30.51 in 10.0 mi Calm Calm - N/A   Clear
8:52 PM -5.1 °F - -11.9 °F 72% 30.51 in 10.0 mi Calm Calm - N/A   Clear
9:52 PM -8.0 °F - -14.1 °F 75% 30.50 in 10.0 mi Calm Calm - N/A   Clear
10:52 PM -9.9 °F - -16.1 °F 74% 30.51 in 10.0 mi Calm Calm - N/A   Clear
11:52 PM -11.0 °F - -18.0 °F 71% 30.53 in 10.0 mi Calm Calm - N/A   Clear